Date,TemperatureHighF,TemperatureAvgF,TemperatureLowF,DewpointHighF,DewpointAvgF,DewpointLowF,HumidityHigh,HumidityAvg,HumidityLow,PressureMaxIn,PressureMinIn,WindSpeedMaxMPH,WindSpeedAvgMPH,GustSpeedMaxMPH,PrecipitationSumIn
2015-1-1,42.5,40.6,38.4,36.7,32.9,29.0,83,74,66,30.29,29.89,18,9,30,0.02
2015-1-2,46.0,40.8,38.5,30.0,28.0,21.3,68,60,48,30.36,30.28,7,5,15,0.00
2015-1-3,54.8,44.5,35.7,37.4,31.3,24.0,75,61,38,30.31,30.21,5,1,14,0.00
2015-1-4,60.7,51.8,43.0,50.6,43.9,36.5,82,75,60,30.21,29.82,7,1,12,0.00
2015-1-5,50.7,44.4,39.7,38.4,32.0,25.5,84,62,49,29.92,29.86,10,6,17,0.07
2015-1-6,43.4,38.6,35.0,32.2,25.5,20.3,88,60,46,30.10,29.87,11,6,19,0.03
2015-1-7,43.3,38.8,35.7,31.0,24.9,20.7,79,58,42,30.54,30.10,11,6,22,0.00
2015-1-8,44.5,39.9,36.4,32.3,30.0,27.4,79,68,54,30.62,30.54,6,3,22,0.00
2015-1-9,52.4,44.9,39.7,37.9,32.9,28.4,77,63,45,30.58,30.28,4,1,8,0.00
2015-1-10,59.9,51.5,43.4,49.3,43.3,37.3,82,74,56,30.28,30.00,8,1,10,0.00
2015-1-11,64.4,56.9,49.7,54.0,49.5,44.3,87,77,57,30.10,29.95,3,0,10,0.00
2015-1-12,62.3,53.3,41.8,54.7,45.1,31.3,88,74,50,30.22,29.89,13,5,26,0.17
2015-1-13,51.4,47.6,41.1,37.4,32.2,28.4,84,56,42,30.24,30.12,13,6,20,0.07
2015-1-14,58.5,50.9,44.8,39.3,35.6,31.8,72,56,39,30.19,30.06,6,1,14,0.00
2015-1-15,61.4,52.5,43.9,42.3,35.7,25.0,81,56,25,30.11,30.01,8,1,10,0.00
2015-1-16,57.8,52.4,47.5,40.7,37.3,33.7,68,57,47,30.28,30.11,7,2,13,0.00
2015-1-17,59.1,51.3,43.8,46.8,41.2,34.9,82,69,55,30.31,30.24,3,1,5,0.00
2015-1-18,59.9,54.1,47.0,53.8,48.5,42.7,87,81,71,30.31,30.17,7,2,15,0.02
2015-1-19,61.8,59.2,56.4,55.0,53.3,50.9,86,81,76,30.16,30.03,10,7,20,0.00
2015-1-20,62.9,59.4,56.2,55.6,53.3,51.4,87,80,68,30.06,29.94,8,4,19,0.00
2015-1-21,64.9,60.8,57.3,55.7,53.3,51.2,83,77,69,30.06,29.91,10,3,17,0.00
2015-1-22,64.5,59.6,53.4,57.0,52.6,49.9,89,78,63,30.10,29.87,15,2,18,0.00
2015-1-23,63.7,60.4,50.5,55.8,51.7,46.2,87,74,59,29.86,29.67,15,9,26,0.18
2015-1-24,56.8,54.3,50.3,51.8,48.1,43.8,87,80,64,29.73,29.68,8,2,26,0.12
2015-1-25,60.3,56.9,53.8,51.6,49.8,47.9,84,77,71,29.88,29.69,9,2,12,0.00
2015-1-26,60.4,54.1,49.0,51.3,47.9,44.8,90,80,66,30.02,29.88,10,1,11,0.16
2015-1-27,54.6,51.5,48.7,48.3,45.6,43.2,90,81,67,30.00,29.78,9,2,11,0.03
2015-1-28,57.8,51.4,45.2,46.5,44.0,41.0,89,76,62,29.84,29.75,6,2,8,0.14
2015-1-29,58.3,52.6,50.3,49.2,47.4,44.9,90,83,67,29.75,29.63,5,1,6,0.31
2015-1-30,60.1,55.4,49.8,51.8,48.5,46.0,89,78,63,29.67,29.49,10,4,18,0.00
2015-1-31,62.9,60.4,57.6,55.9,53.2,49.0,84,77,69,29.51,29.38,16,10,24,0.00
2015-2-1,68.0,63.8,60.4,55.8,52.8,46.5,84,68,53,29.55,29.34,18,6,31,0.00
2015-2-2,61.6,56.0,49.4,47.8,43.3,39.7,74,63,53,29.69,29.54,8,4,31,0.00
2015-2-3,59.6,53.3,48.7,42.7,39.8,36.4,73,61,47,29.94,29.68,6,1,11,0.00
2015-2-4,61.5,55.4,48.3,52.3,46.8,41.0,79,73,66,29.97,29.90,9,3,15,0.00
2015-2-5,65.6,60.8,57.3,54.4,51.9,48.4,82,73,55,29.95,29.85,12,6,17,0.00
2015-2-6,63.6,58.9,53.6,56.6,50.0,42.3,81,73,58,29.88,29.61,17,7,31,0.03
2015-2-7,62.0,55.6,50.5,47.1,44.2,39.8,80,66,44,29.98,29.88,7,2,31,0.00
2015-2-8,58.6,53.7,51.3,46.1,43.4,39.8,79,68,55,29.92,29.59,8,3,14,0.00
2015-2-9,51.8,47.5,42.8,40.8,37.3,33.8,83,68,56,29.62,29.51,17,6,29,0.12
2015-2-10,43.2,38.8,35.0,37.3,33.1,29.6,89,80,66,29.89,29.51,17,9,28,0.19
2015-2-11,42.2,38.6,34.7,31.9,27.5,23.3,87,65,48,30.14,29.89,10,6,17,0.02
2015-2-12,44.7,42.2,39.5,30.2,28.1,25.6,65,57,50,30.23,30.13,11,6,22,0.00
2015-2-13,47.2,45.6,43.4,36.1,32.5,27.4,68,60,53,30.21,30.15,6,2,22,0.00
2015-2-14,50.6,47.6,45.2,40.4,37.5,34.2,77,68,62,30.15,30.04,8,3,11,0.00
2015-2-15,56.6,49.6,45.3,38.9,36.8,34.2,75,62,45,30.11,30.03,6,2,9,0.00
2015-2-16,53.4,48.6,44.0,40.2,38.0,35.2,73,67,59,30.20,30.10,9,4,13,0.00
2015-2-17,48.0,45.1,38.3,37.0,33.0,26.8,70,63,54,30.39,30.19,12,6,20,0.00
2015-2-18,40.9,37.6,34.6,28.6,22.8,17.8,75,56,41,30.48,30.39,11,7,21,0.00
2015-2-19,48.9,41.6,33.6,30.2,22.9,17.0,85,50,28,30.46,30.25,10,4,21,0.00
2015-2-20,57.7,49.1,39.7,29.1,24.6,21.0,61,39,25,30.25,30.11,6,2,18,0.00
2015-2-21,60.2,51.4,44.2,44.0,36.3,25.5,73,57,45,30.14,30.00,5,1,8,0.00
2015-2-22,57.8,54.1,49.6,52.7,47.8,42.8,91,79,67,30.02,29.84,12,5,18,0.36
2015-2-23,60.0,56.5,52.9,56.0,52.7,49.1,93,87,77,29.84,29.70,11,5,17,0.20
2015-2-24,62.0,56.0,53.4,51.7,49.0,46.4,92,78,60,29.72,29.66,9,2,11,0.01
2015-2-25,63.1,56.9,52.1,51.2,47.3,40.3,83,71,49,29.95,29.65,7,2,11,0.00
2015-2-26,60.2,54.5,49.1,52.6,47.7,42.8,90,78,64,30.06,29.93,9,1,15,0.20
2015-2-27,63.6,56.4,50.6,53.8,50.2,46.6,90,80,65,29.92,29.64,12,6,18,0.49
2015-2-28,61.9,55.3,49.6,49.7,47.3,45.9,91,75,61,30.03,29.68,6,2,17,0.03
2015-3-1,61.9,57.0,52.6,51.3,48.7,45.0,86,74,62,30.04,29.98,5,1,7,0.00
2015-3-2,63.2,56.2,49.5,51.5,47.7,44.3,83,73,56,30.09,29.99,5,2,7,0.00
2015-3-3,69.9,61.6,55.8,51.2,47.9,45.7,74,61,46,30.17,29.93,9,4,12,0.00
2015-3-4,63.8,58.0,52.6,46.8,40.9,35.3,65,53,43,30.30,30.17,7,2,12,0.00
2015-3-5,60.7,56.7,51.2,54.3,47.2,39.9,84,71,61,30.20,29.97,13,5,20,0.00
2015-3-6,65.0,61.4,58.3,56.7,55.3,53.0,91,81,72,29.97,29.86,15,11,27,0.04
2015-3-7,58.6,53.0,48.9,56.3,45.9,39.9,92,77,59,30.02,29.87,11,4,24,0.42
2015-3-8,56.0,50.5,47.3,42.3,40.3,38.8,75,68,60,30.17,30.01,11,7,17,0.00
2015-3-9,53.2,50.6,48.8,43.4,41.8,40.0,79,72,67,30.19,30.13,11,7,17,0.02
2015-3-10,58.9,52.3,46.7,45.0,42.3,40.4,81,69,52,30.22,30.15,5,2,17,0.00
2015-3-11,59.1,53.8,50.1,49.2,44.7,42.5,86,72,60,30.15,29.90,7,2,12,0.04
2015-3-12,59.7,53.2,49.0,46.2,41.4,36.5,86,65,44,29.94,29.85,7,2,10,0.00
2015-3-13,53.3,49.4,46.7,45.9,42.3,36.0,88,77,52,29.94,29.81,10,3,15,1.06
2015-3-14,61.0,53.7,46.9,43.4,41.1,38.2,86,64,44,30.21,29.87,8,3,12,0.20
2015-3-15,62.4,54.5,47.8,44.7,42.2,39.4,77,64,48,30.40,30.21,8,2,12,0.00
2015-3-16,57.5,53.6,51.2,43.0,41.2,39.5,72,63,54,30.45,30.35,14,8,26,0.00
2015-3-17,55.1,52.9,50.6,40.2,35.1,32.3,62,51,45,30.38,30.24,11,8,26,0.00
2015-3-18,50.9,47.6,46.2,34.8,32.8,31.1,60,56,53,30.23,30.21,10,6,19,0.00
2015-3-19,55.6,50.0,43.8,42.6,35.9,31.5,67,59,48,30.21,30.04,5,2,19,0.00
2015-3-20,53.6,49.6,46.7,43.9,34.8,27.2,78,58,40,30.17,29.99,12,6,20,0.00
2015-3-21,59.4,49.4,44.1,37.9,31.8,27.0,61,51,32,30.25,30.15,5,2,17,0.00
2015-3-22,58.0,54.5,49.7,47.7,44.2,37.3,79,68,53,30.18,30.03,5,2,17,0.05
2015-3-23,60.6,55.8,52.2,52.2,49.6,45.9,87,80,72,30.05,29.96,5,1,11,0.06
2015-3-24,62.6,57.6,54.3,52.6,49.6,46.9,83,75,66,30.13,30.03,7,2,10,0.00
2015-3-25,58.0,54.7,52.1,52.4,49.1,44.5,89,81,75,30.11,29.98,5,1,10,0.22
2015-3-26,61.2,58.8,56.0,57.7,54.2,51.9,93,85,76,30.01,29.71,13,3,16,1.07
2015-3-27,64.0,60.9,58.1,59.2,55.7,48.0,90,83,61,29.73,29.57,11,6,21,0.00
2015-3-28,63.3,59.3,56.2,54.5,52.9,51.1,86,80,71,29.68,29.53,6,2,16,0.00
2015-3-29,60.9,57.3,53.1,52.6,50.1,46.7,88,77,62,29.85,29.66,5,2,7,0.12
2015-3-30,63.7,58.1,51.8,52.0,48.7,42.8,89,72,47,29.87,29.73,6,2,11,0.01
2015-3-31,69.0,60.8,55.7,52.9,48.3,43.7,80,65,42,29.89,29.71,11,3,14,0.00
2015-4-1,70.3,61.7,54.6,54.8,51.4,49.0,83,69,51,29.88,29.69,7,2,14,0.00
2015-4-2,68.4,61.6,56.8,52.8,43.2,37.0,79,53,34,29.98,29.76,7,2,11,0.00
2015-4-3,67.3,58.9,53.2,53.0,44.3,37.0,72,59,40,29.97,29.77,11,2,15,0.00
2015-4-4,58.1,54.8,51.5,41.5,32.6,22.2,60,44,31,30.05,29.94,10,4,12,0.00
2015-4-5,61.8,58.0,54.4,54.8,50.0,42.0,83,75,61,29.97,29.85,10,4,16,0.00
2015-4-6,67.3,61.9,58.3,58.0,53.2,43.7,88,74,47,29.86,29.60,15,8,22,0.00
2015-4-7,63.5,58.0,49.7,46.5,40.7,34.0,76,54,36,29.95,29.73,8,4,21,0.06
2015-4-8,54.9,50.8,48.4,42.4,37.2,32.7,76,60,45,29.99,29.93,14,8,24,0.00
2015-4-9,55.5,48.8,41.6,40.8,36.8,32.9,86,65,44,30.14,29.95,11,7,24,0.24
2015-4-10,59.7,55.2,51.6,37.6,27.0,19.1,56,35,21,30.33,30.15,15,8,31,0.00
2015-4-11,65.4,57.6,49.4,48.7,35.1,27.4,67,44,27,30.32,30.23,6,2,31,0.00
2015-4-12,69.5,60.2,50.1,50.3,44.5,39.1,68,57,42,30.26,30.19,5,1,12,0.00
2015-4-13,72.4,62.9,53.5,52.1,46.2,32.2,71,56,24,30.25,30.17,4,1,6,0.00
2015-4-14,71.3,63.9,56.4,53.6,48.3,43.9,71,57,40,30.18,30.06,3,1,7,0.00
2015-4-15,72.6,65.4,61.0,52.0,45.4,40.8,69,49,38,30.15,30.05,7,2,10,0.00
2015-4-16,66.1,61.8,55.7,53.9,47.2,41.2,77,59,41,30.22,30.13,8,2,11,0.00
2015-4-17,68.7,63.8,59.0,56.7,52.8,45.1,83,68,46,30.15,30.06,8,3,11,0.00
2015-4-18,73.5,66.8,61.8,53.3,48.0,41.2,67,51,40,30.07,29.86,11,4,14,0.00
2015-4-19,71.3,65.4,59.5,58.4,53.8,49.7,78,67,53,29.94,29.82,11,3,15,0.00
2015-4-20,65.9,59.4,56.2,50.0,46.4,40.6,76,62,48,29.98,29.89,11,4,14,0.00
2015-4-21,67.1,60.6,54.8,49.4,43.0,33.0,79,55,30,30.06,29.88,11,4,17,0.00
2015-4-22,69.7,60.0,52.6,49.9,43.0,32.4,68,56,26,30.11,30.00,8,2,17,0.00
2015-4-23,62.7,57.7,54.0,46.3,42.1,37.2,66,56,46,30.25,30.12,8,4,13,0.00
2015-4-24,64.4,59.9,54.8,54.4,50.0,45.5,79,70,62,30.22,30.08,8,3,14,0.00
2015-4-25,67.9,62.5,59.4,57.0,53.4,48.6,86,73,52,30.08,30.00,8,2,11,0.00
2015-4-26,68.4,62.7,56.7,57.9,54.2,49.8,84,74,61,30.02,29.94,5,1,12,0.00
2015-4-27,61.2,60.6,60.1,56.3,55.7,55.0,85,84,83,29.99,29.97,1,0,6,0.00
2015-5-3,75.8,70.5,67.1,60.3,56.7,52.9,74,62,45,29.96,29.90,6,2,14,0.00
2015-5-4,75.5,69.6,63.4,61.4,55.7,52.9,75,62,46,29.99,29.93,6,1,10,0.00
2015-5-5,80.2,72.1,65.3,60.2,55.1,48.7,68,56,40,29.98,29.93,5,1,6,0.00
2015-5-6,82.1,75.1,67.6,61.4,56.3,52.3,65,53,39,29.94,29.87,4,1,6,0.00
2015-5-7,83.8,76.9,69.9,63.7,59.5,54.7,66,55,45,29.89,29.73,7,1,10,0.00
2015-5-8,81.2,75.8,71.5,63.8,58.3,53.9,72,55,42,29.91,29.77,12,5,20,0.00
2015-5-9,82.2,74.8,68.7,56.7,47.9,37.1,61,40,23,29.92,29.78,9,3,20,0.00
2015-5-10,76.2,70.9,66.6,51.5,44.9,37.0,54,40,27,29.92,29.84,12,7,21,0.00
2015-5-11,73.7,67.6,62.3,54.1,49.4,43.7,73,53,41,29.95,29.88,11,4,20,0.02
2015-5-12,72.5,67.6,63.0,51.0,45.0,42.2,65,45,34,30.07,29.92,17,10,29,0.00
2015-5-13,77.3,70.7,63.3,51.7,44.8,40.1,62,41,28,30.07,30.00,11,4,25,0.00
2015-5-14,75.4,70.0,63.1,58.0,49.9,41.4,68,49,38,30.02,29.85,8,2,23,0.00
2015-5-15,77.8,71.4,67.4,62.0,56.4,53.0,81,60,44,30.04,29.87,7,2,12,0.00
2015-5-16,71.3,68.3,65.0,63.8,60.7,54.0,87,77,58,30.12,30.04,9,3,14,0.00
2015-5-17,73.2,69.0,64.6,64.2,60.1,55.1,83,74,62,30.09,29.95,5,2,14,0.00
2015-5-18,76.3,70.3,63.7,63.0,58.4,53.4,85,67,46,29.98,29.84,5,1,9,0.00
2015-5-19,76.4,69.5,65.2,63.3,60.2,54.1,85,73,46,29.85,29.70,8,2,12,0.00
2015-5-20,78.7,71.1,67.1,60.9,57.9,55.9,74,63,49,29.86,29.72,7,2,12,0.17
2015-5-21,78.9,73.5,67.9,63.2,60.2,56.5,75,63,49,29.95,29.86,5,1,12,0.00
2015-5-22,80.3,73.2,68.5,63.4,59.3,53.8,80,63,41,29.96,29.85,6,1,8,0.00
2015-5-23,76.7,72.3,68.0,66.0,61.0,56.3,82,68,56,29.86,29.74,5,1,10,0.00
2015-5-24,78.4,72.1,67.3,61.3,54.8,51.1,66,55,41,29.78,29.72,7,3,15,0.00
2015-5-25,78.6,71.3,66.2,62.0,53.9,48.3,75,55,36,29.82,29.77,8,3,13,0.00
2015-5-26,77.4,70.1,65.6,61.6,56.0,51.2,79,62,42,29.80,29.66,13,2,13,0.00
2015-5-27,74.5,69.9,65.7,63.1,60.5,56.3,83,72,58,29.73,29.65,9,2,12,0.00
2015-5-28,74.7,68.0,61.6,61.3,56.9,53.1,84,68,53,29.82,29.73,8,2,11,0.57
2015-5-29,69.6,64.5,62.0,54.8,52.7,50.3,71,66,58,29.94,29.77,10,4,19,0.00
2015-5-30,73.2,67.2,61.1,59.4,55.1,51.8,74,65,48,30.00,29.93,7,2,19,0.00
2015-5-31,75.9,69.5,62.7,60.8,56.5,53.5,78,64,51,30.02,29.97,6,1,12,0.00
2015-6-1,80.1,73.3,66.6,56.3,50.1,44.7,66,45,33,30.03,29.95,9,4,15,0.00
2015-6-2,81.1,74.7,68.2,55.0,50.7,48.1,58,44,33,29.99,29.94,10,4,18,0.00
2015-6-3,84.0,76.5,70.8,54.0,52.0,48.7,53,43,31,30.01,29.95,9,4,16,0.00
2015-6-4,84.6,78.2,71.0,55.9,53.1,51.0,50,42,32,30.01,29.92,8,4,16,0.00
2015-6-5,80.4,74.0,63.1,62.9,58.1,53.1,84,58,44,30.03,29.92,10,5,14,0.50
2015-6-6,78.8,74.6,71.3,61.8,58.0,54.0,71,57,44,30.03,29.98,13,9,28,0.00
2015-6-7,75.4,72.2,69.7,61.6,60.6,59.6,73,67,62,30.03,29.98,11,8,28,0.00
2015-6-8,78.6,72.7,68.1,59.4,57.6,54.7,71,60,48,30.02,29.91,8,3,24,0.00
2015-6-9,74.2,70.6,67.1,64.8,59.5,53.8,78,68,59,29.96,29.88,8,3,13,0.00
2015-6-10,77.8,73.1,68.3,65.4,60.6,56.8,79,65,54,29.93,29.89,7,2,10,0.00
2015-6-11,83.0,74.0,68.5,65.0,60.4,56.8,77,64,43,29.96,29.89,7,2,11,0.00
2015-6-12,86.4,78.8,71.2,63.4,59.4,57.6,76,53,39,30.00,29.93,9,4,19,0.00
2015-6-13,89.2,81.6,74.0,62.3,56.1,49.8,56,43,29,30.00,29.92,9,2,19,0.00
2015-6-14,86.5,80.5,73.9,67.2,57.3,49.7,62,45,37,29.97,29.88,8,2,16,0.00
2015-6-15,88.1,81.6,75.8,67.5,61.0,55.9,63,50,41,29.89,29.82,7,2,11,0.00
2015-6-16,90.3,83.0,76.6,67.0,61.1,56.5,58,48,35,29.85,29.73,7,2,10,0.00
2015-6-17,89.1,82.3,76.8,67.8,62.9,58.5,67,52,38,29.80,29.66,8,3,12,0.00
2015-6-18,81.2,76.5,72.2,66.7,63.2,59.9,76,64,52,29.69,29.61,9,4,13,0.01
2015-6-19,81.3,73.4,67.3,64.0,59.4,50.6,79,63,36,29.82,29.66,7,4,12,0.00
2015-6-20,78.5,74.5,69.9,65.5,62.4,59.1,77,66,53,29.83,29.78,8,3,12,0.00
2015-6-21,82.7,76.0,71.4,68.9,65.4,58.2,83,70,46,29.83,29.74,7,2,10,0.00
2015-6-22,75.9,72.2,66.2,63.8,60.6,58.0,85,67,56,29.95,29.82,12,4,13,0.24
2015-6-23,80.5,72.9,66.4,63.1,57.7,53.6,69,59,42,29.95,29.90,8,2,15,0.00
2015-6-24,82.7,75.1,68.6,66.8,61.4,57.1,73,63,42,29.96,29.90,7,2,11,0.00
2015-6-25,84.8,77.8,72.9,68.1,63.8,58.8,78,62,48,29.93,29.88,8,2,12,0.00
2015-6-26,82.5,77.1,73.1,66.3,57.2,45.1,66,51,33,29.90,29.74,7,2,10,0.00
2015-6-27,80.0,74.4,70.9,55.2,53.2,49.5,56,48,38,29.85,29.73,8,5,16,0.00
2015-6-28,82.0,75.2,69.9,64.9,57.7,53.3,66,55,45,29.90,29.83,7,2,16,0.00
2015-6-29,84.4,75.9,70.7,65.6,59.9,51.9,72,59,35,29.97,29.88,5,1,12,0.08
2015-6-30,83.4,75.7,69.0,67.8,61.9,57.8,78,63,43,30.04,29.94,9,2,12,0.02
2015-7-1,83.6,74.6,68.2,67.7,59.9,56.2,80,61,44,30.05,29.99,5,2,10,0.11
2015-7-2,85.7,78.4,70.5,58.7,55.6,51.7,63,47,33,30.08,30.03,11,5,16,0.00
2015-7-3,85.9,80.7,75.1,61.2,57.1,49.1,54,45,32,30.11,30.04,11,5,20,0.00
2015-7-4,83.5,78.9,74.2,60.1,56.0,52.4,60,46,35,30.10,30.03,11,6,20,0.00
2015-7-5,88.6,80.4,73.6,59.2,56.5,53.1,56,45,31,30.05,29.97,9,4,19,0.00
2015-7-6,91.5,83.1,76.6,67.0,59.2,55.2,58,45,31,30.01,29.93,8,2,14,0.00
2015-7-7,91.0,84.9,78.8,62.3,59.1,54.7,51,42,30,29.95,29.85,13,6,18,0.00
2015-7-8,93.8,86.6,77.9,69.0,57.8,53.8,74,39,27,29.85,29.73,10,4,20,0.00
2015-7-9,87.1,81.2,75.9,69.6,65.0,59.9,76,59,43,29.80,29.73,7,2,20,0.00
2015-7-10,88.4,82.0,76.1,72.5,67.6,62.1,80,62,47,29.91,29.79,7,2,11,0.00
2015-7-11,88.7,82.9,78.0,67.2,64.6,61.9,65,54,44,29.93,29.85,8,4,13,0.00
2015-7-12,89.9,82.7,76.5,62.8,57.6,51.5,56,43,28,29.92,29.85,8,4,13,0.00
2015-7-13,89.8,83.7,78.1,68.1,57.0,52.3,53,40,34,29.91,29.84,11,4,18,0.00
2015-7-14,94.4,84.3,77.8,70.0,60.8,49.1,66,46,32,29.89,29.80,5,2,16,0.00
2015-7-15,89.1,84.0,79.8,66.3,60.1,56.3,61,45,38,29.97,29.89,10,6,16,0.00
2015-7-16,91.1,85.2,79.1,62.2,58.7,56.1,48,41,33,29.98,29.91,13,5,22,0.00
2015-7-17,90.4,85.4,81.2,60.7,55.1,50.2,47,36,26,29.98,29.93,16,8,27,0.00
2015-7-18,91.4,85.2,79.4,58.5,52.2,44.3,47,33,20,29.95,29.87,14,8,30,0.00
2015-7-19,93.1,87.2,82.1,56.9,52.6,46.0,37,31,23,29.89,29.79,12,7,30,0.00
2015-7-20,96.3,88.5,80.7,57.2,49.6,35.3,41,28,16,29.80,29.72,11,4,19,0.00
2015-7-21,96.4,90.1,83.8,60.3,51.3,33.8,39,27,15,29.80,29.74,16,7,29,0.00
2015-7-22,91.8,87.7,84.1,65.5,59.1,53.1,47,38,32,29.84,29.78,13,9,29,0.00
2015-7-23,93.8,86.2,78.9,69.0,56.5,52.6,71,37,27,29.82,29.71,8,4,21,0.00
2015-7-24,89.1,81.8,76.7,71.7,66.3,59.4,79,61,41,29.80,29.73,7,2,13,0.00
2015-7-25,84.9,81.3,77.4,71.5,67.7,62.7,74,64,51,29.80,29.74,7,2,13,0.00
2015-7-26,87.9,82.3,76.6,75.7,72.3,66.2,90,72,57,29.77,29.70,5,1,11,0.00
2015-7-27,91.6,85.1,80.2,74.8,69.0,65.8,67,59,49,29.74,29.65,8,2,13,0.00
2015-7-28,93.3,86.6,81.3,76.5,70.1,66.4,78,58,44,29.72,29.65,6,2,12,0.00
2015-7-29,91.5,86.2,82.0,76.6,72.1,66.8,82,64,49,29.72,29.67,6,1,9,0.00
2015-7-30,94.8,88.0,82.4,76.1,69.2,64.2,70,54,37,29.72,29.66,8,2,11,0.00
2015-7-31,95.7,88.5,83.4,76.5,70.6,66.0,69,56,41,29.75,29.66,5,1,9,0.00
2015-8-1,95.4,89.4,85.0,72.6,64.3,59.9,66,44,31,29.92,29.75,12,6,18,0.00
2015-8-2,91.7,86.8,82.8,67.0,65.5,62.2,58,49,42,29.95,29.91,12,7,19,0.00
2015-8-3,94.2,86.5,80.8,67.7,65.8,64.0,62,51,40,29.95,29.82,11,5,19,0.00
2015-8-4,95.3,87.0,80.5,69.8,63.5,53.7,62,47,30,29.89,29.76,9,3,19,0.00
2015-8-5,96.2,88.5,81.6,70.6,62.6,56.9,64,43,32,29.79,29.73,8,3,17,0.00
2015-8-6,94.1,88.0,82.4,68.5,64.3,59.2,62,46,34,29.79,29.73,12,7,23,0.00
2015-8-7,91.0,86.3,82.0,69.6,66.3,63.4,60,52,45,29.87,29.75,10,5,23,0.00
2015-8-8,88.9,83.8,80.0,67.8,64.6,62.3,64,53,42,29.92,29.83,12,6,18,0.00
2015-8-9,90.9,84.6,79.8,70.6,62.6,54.7,70,49,34,29.91,29.87,10,4,17,0.00
2015-8-10,91.2,83.0,77.1,73.3,63.6,56.4,76,53,36,29.90,29.82,6,1,13,0.43
2015-8-11,86.0,79.3,76.4,70.6,67.0,61.4,78,67,45,29.85,29.81,3,0,4,0.00
2015-8-21,80.6,80.2,80.0,66.5,66.2,65.9,63,62,61,29.90,29.89,8,6,12,0.00
2015-8-22,90.3,82.3,77.1,68.8,65.8,62.4,70,58,44,29.89,29.79,8,3,13,0.00
2015-8-23,85.4,80.0,75.4,66.7,64.2,59.9,71,59,48,29.89,29.83,8,4,12,0.00
2015-8-24,86.1,80.1,74.6,63.4,60.0,56.5,62,51,38,29.97,29.88,10,5,14,0.00
2015-8-25,87.7,81.4,75.5,62.1,55.7,48.3,59,43,29,29.97,29.92,10,5,20,0.00
2015-8-26,87.6,81.8,76.1,58.6,52.2,46.3,50,37,25,29.97,29.91,13,6,27,0.00
2015-8-27,88.0,81.9,76.8,57.6,51.9,46.0,50,36,24,30.00,29.91,12,6,27,0.00
2015-8-28,91.3,83.1,75.9,60.2,50.0,38.6,55,35,16,30.04,29.98,11,6,21,0.00
2015-8-29,91.4,83.9,76.7,53.7,48.0,40.8,41,29,20,30.05,29.99,12,4,21,0.00
2015-8-30,92.0,85.8,79.3,59.2,55.0,51.5,50,35,27,30.05,29.99,14,7,21,0.00
2015-8-31,92.6,85.8,80.8,58.5,53.9,44.8,46,35,20,30.02,29.91,11,6,20,0.00
2015-9-1,91.8,85.4,79.0,70.6,60.4,51.1,70,45,27,29.93,29.83,6,2,20,0.00
2015-9-2,79.2,78.2,77.3,66.6,65.3,64.4,68,65,61,29.86,29.84,1,0,7,0.00